| time (UTC) | temp F | wind direction | speed MPH | gust MPH | rain 1hr in | rain 24hr in | rain mn in | humidity % | barometer mb |
| 20260509130502 | 53 | 114 | 0.0 | 0.0 | 0.00 | 0.02 | 0.02 | 96 | 1013.1 |
| 20260509125959 | 52 | 122 | 0.0 | 0.0 | 0.00 | 0.02 | 0.02 | 96 | 1013.0 |
| 20260509125456 | 52 | 120 | 0.0 | 0.0 | 0.00 | 0.02 | 0.02 | 96 | 1013.1 |
| 20260509124952 | 52 | 128 | 0.0 | 0.0 | 0.00 | 0.02 | 0.02 | 96 | 1013.2 |
| 20260509124449 | 52 | 124 | 0.0 | 0.0 | 0.00 | 0.02 | 0.02 | 96 | 1013.2 |
| 20260509123946 | 52 | 123 | 0.0 | 0.0 | 0.00 | 0.02 | 0.02 | 96 | 1013.0 |
| 20260509123444 | 51 | 129 | 0.0 | 0.0 | 0.00 | 0.02 | 0.02 | 96 | 1013.0 |
| 20260509122939 | 51 | 131 | 0.0 | 0.0 | 0.00 | 0.02 | 0.02 | 96 | 1013.3 |
| 20260509122436 | 51 | 95 | 0.0 | 0.0 | 0.00 | 0.02 | 0.02 | 96 | 1013.3 |
| 20260509121933 | 51 | 140 | 0.0 | 1.0 | 0.00 | 0.02 | 0.02 | 96 | 1012.6 |
| 20260509121430 | 51 | 114 | 0.0 | 0.0 | 0.00 | 0.02 | 0.02 | 96 | 1012.8 |
| 20260509120928 | 51 | 139 | 0.0 | 0.0 | 0.00 | 0.02 | 0.02 | 96 | 1012.9 |
| 20260509120426 | 51 | 126 | 0.0 | 0.0 | 0.00 | 0.02 | 0.02 | 96 | 1013.1 |
| 20260509115924 | 51 | 100 | 0.0 | 0.0 | 0.07 | 0.02 | 0.02 | 96 | 1013.1 |
| 20260509115421 | 51 | 125 | 0.0 | 0.0 | 0.07 | 0.02 | 0.02 | 96 | 1013.3 |
| 20260509114918 | 51 | 130 | 0.0 | 0.0 | 0.00 | 0.01 | 0.01 | 96 | 1013.4 |
| 20260509114417 | 50 | 125 | 0.0 | 0.0 | 0.00 | 0.01 | 0.01 | 96 | 1013.6 |
| 20260509113916 | 50 | 131 | 0.0 | 0.0 | 0.00 | 0.01 | 0.01 | 96 | 1013.8 |
| 20260509113413 | 50 | 122 | 0.0 | 0.0 | 0.00 | 0.01 | 0.01 | 96 | 1013.4 |
| 20260509112909 | 50 | 134 | 0.0 | 0.0 | 0.00 | 0.01 | 0.01 | 96 | 1013.7 |
| 20260509112407 | 50 | 122 | 0.0 | 0.0 | 0.00 | 0.01 | 0.01 | 96 | 1013.5 |
| 20260509111904 | 50 | 122 | 0.0 | 0.0 | 0.00 | 0.01 | 0.01 | 96 | 1013.2 |
| 20260509111400 | 50 | 128 | 0.0 | 0.0 | 0.00 | 0.01 | 0.01 | 96 | 1013.6 |
| 20260509110858 | 49 | 121 | 0.0 | 0.0 | 0.00 | 0.01 | 0.01 | 96 | 1013.4 |
| 20260509110354 | 49 | 121 | 0.0 | 0.0 | 0.00 | 0.01 | 0.01 | 97 | 1013.2 |
| 20260509105852 | 49 | 125 | 0.0 | 0.0 | 0.00 | 0.01 | 0.01 | 97 | 1013.1 |
| 20260509105350 | 49 | 130 | 0.0 | 0.0 | 0.00 | 0.01 | 0.01 | 97 | 1012.9 |
| 20260509104847 | 49 | 130 | 0.0 | 0.0 | 0.00 | 0.01 | 0.01 | 97 | 1013.2 |
| 20260509104343 | 49 | 140 | 0.0 | 0.0 | 0.00 | 0.01 | 0.01 | 98 | 1013.0 |
| 20260509103841 | 49 | 124 | 0.0 | 0.0 | 0.00 | 0.01 | 0.01 | 99 | 1012.9 |
| 20260509103338 | 48 | 123 | 0.0 | 0.0 | 0.00 | 0.01 | 0.01 | 99 | 1013.1 |
| 20260509102837 | 48 | 126 | 0.0 | 0.0 | 0.00 | 0.01 | 0.01 | 99 | 1012.8 |
| 20260509102334 | 48 | 124 | 0.0 | 0.0 | 0.00 | 0.01 | 0.01 | 99 | 1012.8 |
| 20260509101829 | 48 | 126 | 0.0 | 0.0 | 0.00 | 0.01 | 0.01 | 99 | 1012.9 |
| 20260509101326 | 48 | 123 | 0.0 | 0.0 | 0.00 | 0.01 | 0.01 | 99 | 1012.8 |
| 20260509100824 | 48 | 129 | 0.0 | 0.0 | 0.00 | 0.01 | 0.01 | 99 | 1012.9 |
| 20260509100321 | 48 | 134 | 0.0 | 0.0 | 0.00 | 0.01 | 0.01 | 99 | 1012.6 |
| 20260509095817 | 48 | 129 | 0.0 | 0.0 | 0.00 | 0.01 | 0.01 | 99 | 1012.9 |
| 20260509095315 | 48 | 118 | 0.0 | 0.0 | 0.00 | 0.01 | 0.01 | 99 | 1012.8 |
| 20260509094812 | 48 | 126 | 0.0 | 0.0 | 0.00 | 0.01 | 0.01 | 99 | 1012.8 |
| 20260509094308 | 48 | 124 | 0.0 | 0.0 | 0.00 | 0.01 | 0.01 | 99 | 1013.0 |
| 20260509093806 | 48 | 123 | 0.0 | 0.0 | 0.00 | 0.01 | 0.01 | 99 | 1012.9 |
| 20260509093303 | 48 | 125 | 0.0 | 0.0 | 0.00 | 0.01 | 0.01 | 99 | 1012.8 |
| 20260509092802 | 48 | 124 | 0.0 | 0.0 | 0.00 | 0.01 | 0.01 | 99 | 1013.1 |
| 20260509092259 | 48 | 123 | 0.0 | 0.0 | 0.00 | 0.01 | 0.01 | 99 | 1013.1 |
| 20260509091757 | 48 | 124 | 0.0 | 0.0 | 0.00 | 0.01 | 0.01 | 99 | 1013.0 |
| 20260509091253 | 48 | 124 | 0.0 | 0.0 | 0.00 | 0.01 | 0.01 | 99 | 1013.2 |
| 20260509090751 | 48 | 125 | 0.0 | 0.0 | 0.00 | 0.01 | 0.01 | 99 | 1013.0 |
| 20260509090248 | 48 | 124 | 0.0 | 0.0 | 0.00 | 0.01 | 0.01 | 99 | 1013.0 |
| 20260509085745 | 48 | 125 | 0.0 | 0.0 | 0.00 | 0.01 | 0.01 | 99 | 1013.0 |
| 20260509085243 | 48 | 124 | 0.0 | 0.0 | 0.00 | 0.01 | 0.01 | 99 | 1012.9 |
| 20260509084739 | 48 | 126 | 0.0 | 0.0 | 0.00 | 0.01 | 0.01 | 99 | 1012.7 |
| 20260509084235 | 48 | 126 | 0.0 | 0.0 | 0.00 | 0.01 | 0.01 | 99 | 1013.2 |
| 20260509083734 | 48 | 126 | 0.0 | 0.0 | 0.00 | 0.01 | 0.01 | 99 | 1013.2 |
| 20260509083230 | 49 | 124 | 0.0 | 0.0 | 0.00 | 0.01 | 0.01 | 99 | 1012.9 |
| 20260509082727 | 49 | 122 | 0.0 | 0.0 | 0.00 | 0.01 | 0.01 | 99 | 1012.9 |
| 20260509082224 | 49 | 125 | 0.0 | 0.0 | 0.00 | 0.01 | 0.01 | 99 | 1013.2 |
| 20260509081720 | 49 | 129 | 0.0 | 0.0 | 0.00 | 0.01 | 0.01 | 99 | 1013.2 |
| 20260509081218 | 49 | 130 | 0.0 | 0.0 | 0.00 | 0.01 | 0.01 | 99 | 1013.3 |
| 20260509080716 | 49 | 125 | 0.0 | 0.0 | 0.00 | 0.01 | 0.01 | 98 | 1013.2 |
| 20260509080213 | 49 | 121 | 0.0 | 0.0 | 0.00 | 0.01 | 0.01 | 98 | 1013.1 |
| 20260509075711 | 49 | 126 | 0.0 | 0.0 | 0.00 | 0.01 | 0.01 | 98 | 1013.3 |
| 20260509075209 | 49 | 123 | 0.0 | 0.0 | 0.00 | 0.01 | 0.01 | 98 | 1013.0 |
| 20260509074705 | 49 | 127 | 0.0 | 0.0 | 0.00 | 0.01 | 0.01 | 98 | 1013.1 |
| 20260509074203 | 49 | 128 | 0.0 | 0.0 | 0.00 | 0.01 | 0.01 | 98 | 1013.0 |
| 20260509073659 | 48 | 125 | 0.0 | 0.0 | 0.00 | 0.01 | 0.01 | 98 | 1013.3 |
| 20260509073155 | 48 | 127 | 0.0 | 0.0 | 0.00 | 0.01 | 0.01 | 98 | 1013.1 |
| 20260509072652 | 49 | 128 | 0.0 | 0.0 | 0.00 | 0.01 | 0.01 | 97 | 1013.0 |
| 20260509072149 | 49 | 129 | 0.0 | 0.0 | 0.00 | 0.01 | 0.01 | 97 | 1012.8 |
| 20260509071645 | 49 | 124 | 0.0 | 0.0 | 0.00 | 0.01 | 0.01 | 97 | 1012.9 |
| 20260509071143 | 49 | 127 | 0.0 | 0.0 | 0.00 | 0.01 | 0.01 | 97 | 1013.0 |
| 20260509070640 | 49 | 123 | 0.0 | 0.0 | 0.00 | 0.01 | 0.01 | 97 | 1012.7 |
| 20260509070136 | 49 | 123 | 0.0 | 0.0 | 0.00 | 0.01 | 0.01 | 96 | 1013.2 |
| 20260509065632 | 49 | 120 | 0.0 | 0.0 | 0.05 | 0.01 | 0.01 | 96 | 1013.3 |
| 20260509065128 | 49 | 128 | 0.0 | 0.0 | 0.05 | 0.01 | 0.01 | 96 | 1013.2 |
| 20260509064625 | 49 | 125 | 0.0 | 0.0 | 0.00 | 0.00 | 0.00 | 96 | 1013.3 |
| 20260509064123 | 49 | 122 | 0.0 | 0.0 | 0.00 | 0.00 | 0.00 | 95 | 1013.1 |
| 20260509063619 | 49 | 124 | 0.0 | 0.0 | 0.00 | 0.00 | 0.00 | 95 | 1013.0 |
| 20260509063111 | 49 | 124 | 0.0 | 0.0 | 0.00 | 0.00 | 0.00 | 95 | 1013.2 |
| 20260509062608 | 49 | 124 | 0.0 | 0.0 | 0.00 | 0.00 | 0.00 | 95 | 1013.0 |
| 20260509062105 | 49 | 126 | 0.0 | 0.0 | 0.00 | 0.00 | 0.00 | 94 | 1013.2 |
| 20260509061602 | 49 | 125 | 0.0 | 0.0 | 0.00 | 0.00 | 0.00 | 94 | 1013.3 |
| 20260509061059 | 49 | 124 | 0.0 | 0.0 | 0.00 | 0.00 | 0.00 | 93 | 1013.2 |
| 20260509060557 | 49 | 124 | 0.0 | 0.0 | 0.00 | 0.00 | 0.00 | 93 | 1013.5 |
| 20260509060052 | 49 | 126 | 0.0 | 0.0 | 0.00 | 0.00 | 0.00 | 92 | 1013.4 |
| 20260509055548 | 49 | 130 | 0.0 | 0.0 | 0.00 | 0.00 | 0.00 | 92 | 1013.5 |
| 20260509055044 | 49 | 126 | 0.0 | 0.0 | 0.00 | 0.00 | 0.00 | 91 | 1013.8 |
| 20260509054541 | 49 | 127 | 0.0 | 0.0 | 0.00 | 0.00 | 0.00 | 91 | 1013.5 |
| 20260509054039 | 49 | 131 | 0.0 | 0.0 | 0.00 | 0.00 | 0.00 | 91 | 1013.5 |
| 20260509053537 | 49 | 126 | 0.0 | 0.0 | 0.00 | 0.00 | 0.00 | 90 | 1013.4 |
| 20260509053034 | 49 | 124 | 0.0 | 0.0 | 0.00 | 0.00 | 0.00 | 90 | 1013.5 |
| 20260509052532 | 49 | 126 | 0.0 | 0.0 | 0.00 | 0.00 | 0.00 | 90 | 1013.7 |
| 20260509052029 | 49 | 123 | 0.0 | 0.0 | 0.00 | 0.00 | 0.00 | 90 | 1013.7 |
| 20260509051527 | 49 | 124 | 0.0 | 0.0 | 0.00 | 0.00 | 0.00 | 89 | 1013.8 |
| 20260509051023 | 49 | 126 | 0.0 | 0.0 | 0.00 | 0.00 | 0.00 | 89 | 1013.8 |
| 20260509050520 | 49 | 126 | 0.0 | 0.0 | 0.00 | 0.00 | 0.00 | 89 | 1013.6 |
| 20260509050011 | 48 | 131 | 0.0 | 0.0 | 0.00 | 0.00 | 0.00 | 89 | 1013.5 |
| 20260509045509 | 48 | 132 | 0.0 | 0.0 | 0.00 | 0.00 | 0.00 | 90 | 1013.6 |
| 20260509045006 | 49 | 124 | 0.0 | 0.0 | 0.00 | 0.00 | 0.00 | 91 | 1013.6 |
| 20260509044504 | 48 | 124 | 0.0 | 0.0 | 0.00 | 0.00 | 0.00 | 91 | 1013.9 |
| 20260509044001 | 48 | 124 | 0.0 | 0.0 | 0.00 | 0.00 | 0.00 | 91 | 1013.5 |
| 20260509043456 | 48 | 122 | 0.0 | 0.0 | 0.00 | 0.00 | 0.00 | 91 | 1013.7 |
| 20260509042951 | 48 | 126 | 0.0 | 0.0 | 0.00 | 0.00 | 0.00 | 91 | 1013.4 |
| 20260509042449 | 48 | 127 | 0.0 | 0.0 | 0.00 | 0.00 | 0.00 | 91 | 1013.9 |
| 20260509041945 | 48 | 123 | 0.0 | 0.0 | 0.00 | 0.00 | 0.00 | 90 | 1013.6 |
| 20260509041442 | 48 | 124 | 0.0 | 0.0 | 0.00 | 0.00 | 0.00 | 90 | 1013.5 |
| 20260509040940 | 48 | 126 | 0.0 | 0.0 | 0.00 | 0.00 | 0.00 | 90 | 1013.8 |
| 20260509040438 | 48 | 124 | 0.0 | 0.0 | 0.00 | 0.00 | 0.00 | 89 | 1013.6 |
| 20260509035934 | 49 | 124 | 0.0 | 0.0 | 0.00 | 0.04 | 0.04 | 89 | 1013.7 |
| 20260509035431 | 49 | 121 | 0.0 | 0.0 | 0.00 | 0.04 | 0.04 | 88 | 1013.6 |
| 20260509034927 | 49 | 124 | 0.0 | 0.0 | 0.00 | 0.04 | 0.04 | 88 | 1013.7 |
| 20260509034426 | 50 | 128 | 0.0 | 0.0 | 0.00 | 0.04 | 0.04 | 88 | 1013.7 |
| 20260509033922 | 50 | 127 | 0.0 | 0.0 | 0.00 | 0.04 | 0.04 | 88 | 1013.8 |
| 20260509033419 | 50 | 126 | 0.0 | 0.0 | 0.00 | 0.04 | 0.04 | 88 | 1013.7 |
| 20260509032916 | 50 | 126 | 0.0 | 0.0 | 0.00 | 0.04 | 0.04 | 88 | 1013.8 |
| 20260509032413 | 50 | 124 | 0.0 | 0.0 | 0.00 | 0.04 | 0.04 | 88 | 1013.7 |
| 20260509031911 | 50 | 126 | 0.0 | 0.0 | 0.00 | 0.04 | 0.04 | 87 | 1013.7 |
| 20260509031408 | 50 | 128 | 0.0 | 0.0 | 0.00 | 0.04 | 0.04 | 87 | 1013.7 |
| 20260509030906 | 50 | 126 | 0.0 | 0.0 | 0.00 | 0.04 | 0.04 | 86 | 1013.8 |
| 20260509030404 | 50 | 126 | 0.0 | 0.0 | 0.00 | 0.04 | 0.04 | 86 | 1013.7 |
| 20260509025901 | 50 | 126 | 0.0 | 0.0 | 0.00 | 0.04 | 0.04 | 86 | 1013.7 |
| 20260509025355 | 50 | 126 | 0.0 | 0.0 | 0.00 | 0.04 | 0.04 | 85 | 1013.8 |
| 20260509024851 | 50 | 127 | 0.0 | 0.0 | 0.00 | 0.04 | 0.04 | 86 | 1013.7 |
| 20260509024347 | 50 | 127 | 0.0 | 0.0 | 0.00 | 0.04 | 0.04 | 86 | 1013.5 |
| 20260509023844 | 50 | 126 | 0.0 | 0.0 | 0.00 | 0.04 | 0.04 | 86 | 1013.6 |
| 20260509023342 | 50 | 129 | 0.0 | 0.0 | 0.00 | 0.04 | 0.04 | 86 | 1013.5 |
| 20260509022838 | 50 | 131 | 0.0 | 0.0 | 0.00 | 0.04 | 0.04 | 86 | 1013.4 |
| 20260509022335 | 50 | 128 | 0.0 | 0.0 | 0.00 | 0.04 | 0.04 | 86 | 1013.5 |
| 20260509021832 | 50 | 128 | 0.0 | 0.0 | 0.00 | 0.04 | 0.04 | 86 | 1013.4 |
| 20260509021330 | 50 | 129 | 0.0 | 0.0 | 0.00 | 0.04 | 0.04 | 85 | 1013.4 |
| 20260509020827 | 50 | 128 | 0.0 | 0.0 | 0.00 | 0.04 | 0.04 | 85 | 1013.2 |
| 20260509020325 | 50 | 124 | 0.0 | 0.0 | 0.00 | 0.04 | 0.04 | 84 | 1013.1 |
| 20260509015822 | 50 | 124 | 0.0 | 0.0 | 0.00 | 0.04 | 0.04 | 85 | 1013.2 |
| 20260509015320 | 50 | 122 | 0.0 | 0.0 | 0.00 | 0.04 | 0.04 | 84 | 1013.1 |
| 20260509014817 | 50 | 126 | 0.0 | 0.0 | 0.00 | 0.04 | 0.04 | 84 | 1013.0 |
| 20260509014314 | 50 | 127 | 0.0 | 0.0 | 0.00 | 0.04 | 0.04 | 84 | 1013.0 |
| 20260509013810 | 50 | 124 | 0.0 | 0.0 | 0.00 | 0.04 | 0.04 | 84 | 1012.9 |
| 20260509013307 | 49 | 124 | 0.0 | 0.0 | 0.00 | 0.04 | 0.04 | 84 | 1012.7 |
| 20260509012803 | 49 | 124 | 0.0 | 0.0 | 0.00 | 0.04 | 0.04 | 84 | 1012.8 |
| 20260509012300 | 49 | 124 | 0.0 | 0.0 | 0.00 | 0.04 | 0.04 | 83 | 1012.8 |
| 20260509011757 | 49 | 130 | 0.0 | 0.0 | 0.00 | 0.04 | 0.04 | 83 | 1012.9 |
| 20260509011254 | 49 | 126 | 0.0 | 0.0 | 0.00 | 0.04 | 0.04 | 82 | 1012.7 |
| 20260509010752 | 49 | 124 | 0.0 | 0.0 | 0.00 | 0.04 | 0.04 | 82 | 1012.9 |
| 20260509010248 | 49 | 124 | 0.0 | 0.0 | 0.00 | 0.04 | 0.04 | 81 | 1012.8 |
| 20260509005746 | 49 | 124 | 0.0 | 0.0 | 0.00 | 0.04 | 0.04 | 81 | 1012.7 |
| 20260509005238 | 50 | 124 | 0.0 | 0.0 | 0.00 | 0.04 | 0.04 | 80 | 1012.5 |
| 20260509004737 | 50 | 124 | 0.0 | 0.0 | 0.00 | 0.04 | 0.04 | 80 | 1012.6 |
| 20260509004235 | 50 | 124 | 0.0 | 0.0 | 0.00 | 0.04 | 0.04 | 79 | 1012.5 |
| 20260509003733 | 50 | 124 | 0.0 | 0.0 | 0.00 | 0.04 | 0.04 | 78 | 1012.5 |
| 20260509003230 | 51 | 120 | 0.0 | 0.0 | 0.00 | 0.04 | 0.04 | 77 | 1012.4 |
| 20260509002727 | 51 | 126 | 0.0 | 0.0 | 0.00 | 0.04 | 0.04 | 75 | 1012.3 |
| 20260509002225 | 51 | 124 | 0.0 | 0.0 | 0.00 | 0.04 | 0.04 | 74 | 1012.3 |
| 20260509001723 | 51 | 123 | 0.0 | 0.0 | 0.00 | 0.04 | 0.04 | 73 | 1012.2 |
| 20260509001218 | 52 | 124 | 0.0 | 0.0 | 0.00 | 0.04 | 0.04 | 73 | 1012.1 |
| 20260509000716 | 52 | 124 | 0.0 | 0.0 | 0.00 | 0.04 | 0.04 | 71 | 1012.3 |
| 20260509000213 | 53 | 120 | 0.0 | 0.0 | 0.00 | 0.04 | 0.04 | 69 | 1012.2 |
| 20260508235710 | 53 | 124 | 0.0 | 0.0 | 0.00 | 0.04 | 0.04 | 68 | 1012.2 |
| 20260508235206 | 54 | 124 | 0.0 | 0.0 | 0.00 | 0.04 | 0.04 | 67 | 1012.1 |
| 20260508234704 | 54 | 124 | 0.0 | 0.0 | 0.00 | 0.04 | 0.04 | 66 | 1012.1 |
| 20260508234200 | 55 | 122 | 0.0 | 0.0 | 0.00 | 0.04 | 0.04 | 65 | 1012.0 |
| 20260508233700 | 55 | 126 | 0.0 | 0.0 | 0.00 | 0.04 | 0.04 | 64 | 1011.9 |
| 20260508233157 | 55 | 121 | 0.0 | 0.0 | 0.00 | 0.04 | 0.04 | 63 | 1011.9 |
| 20260508232654 | 56 | 126 | 0.0 | 0.0 | 0.00 | 0.04 | 0.04 | 63 | 1011.9 |
| 20260508232151 | 56 | 126 | 0.0 | 0.0 | 0.00 | 0.04 | 0.04 | 64 | 1012.0 |
| 20260508231649 | 56 | 122 | 0.0 | 0.0 | 0.00 | 0.04 | 0.04 | 65 | 1011.8 |
| 20260508231145 | 56 | 126 | 0.0 | 0.0 | 0.00 | 0.04 | 0.04 | 64 | 1011.9 |
| 20260508230642 | 56 | 127 | 0.0 | 0.0 | 0.00 | 0.04 | 0.04 | 65 | 1011.9 |
| 20260508230138 | 56 | 135 | 0.0 | 1.0 | 0.00 | 0.04 | 0.04 | 63 | 1012.0 |
| 20260508225637 | 56 | 128 | 0.0 | 0.0 | 0.00 | 0.04 | 0.04 | 64 | 1011.7 |
| 20260508225132 | 56 | 129 | 0.0 | 0.0 | 0.00 | 0.04 | 0.04 | 64 | 1011.7 |
| 20260508224630 | 56 | 127 | 0.0 | 0.0 | 0.00 | 0.04 | 0.04 | 63 | 1011.7 |
| 20260508224128 | 56 | 124 | 0.0 | 0.0 | 0.00 | 0.04 | 0.04 | 63 | 1011.7 |
| 20260508223626 | 56 | 194 | 1.0 | 2.0 | 0.00 | 0.04 | 0.04 | 63 | 1011.8 |
| 20260508223122 | 56 | 123 | 0.0 | 0.0 | 0.00 | 0.04 | 0.04 | 63 | 1011.7 |
| 20260508222620 | 56 | 125 | 0.0 | 0.0 | 0.00 | 0.04 | 0.04 | 63 | 1011.6 |
| 20260508222116 | 56 | 125 | 0.0 | 0.0 | 0.00 | 0.04 | 0.04 | 65 | 1011.5 |
| 20260508221607 | 56 | 117 | 0.0 | 0.0 | 0.00 | 0.04 | 0.04 | 65 | 1011.8 |
| 20260508221103 | 56 | 124 | 0.0 | 0.0 | 0.00 | 0.04 | 0.04 | 63 | 1011.5 |
| 20260508220600 | 56 | 152 | 1.0 | 1.0 | 0.00 | 0.04 | 0.04 | 63 | 1011.5 |
| 20260508220056 | 57 | 162 | 1.0 | 2.0 | 0.00 | 0.04 | 0.04 | 63 | 1011.7 |
| 20260508215553 | 57 | 137 | 0.0 | 1.0 | 0.00 | 0.04 | 0.04 | 64 | 1011.7 |
| 20260508215050 | 57 | 128 | 0.0 | 0.0 | 0.00 | 0.04 | 0.04 | 63 | 1011.5 |
| 20260508214547 | 57 | 141 | 1.0 | 1.0 | 0.00 | 0.04 | 0.04 | 62 | 1011.7 |
| 20260508214043 | 57 | 135 | 0.0 | 1.0 | 0.00 | 0.04 | 0.04 | 62 | 1011.6 |
| 20260508213541 | 57 | 129 | 0.0 | 0.0 | 0.00 | 0.04 | 0.04 | 63 | 1011.9 |
| 20260508213036 | 57 | 122 | 0.0 | 0.0 | 0.00 | 0.04 | 0.04 | 62 | 1012.0 |
| 20260508212533 | 57 | 144 | 1.0 | 2.0 | 0.00 | 0.04 | 0.04 | 61 | 1011.8 |
| 20260508212029 | 57 | 116 | 0.0 | 0.0 | 0.00 | 0.04 | 0.04 | 61 | 1011.9 |
| 20260508211525 | 57 | 96 | 0.0 | 1.0 | 0.00 | 0.04 | 0.04 | 61 | 1012.1 |
| 20260508211022 | 57 | 122 | 1.0 | 2.0 | 0.00 | 0.04 | 0.04 | 60 | 1011.9 |
| 20260508210518 | 57 | 125 | 0.0 | 1.0 | 0.00 | 0.04 | 0.04 | 61 | 1011.8 |
| 20260508210016 | 57 | 89 | 0.0 | 1.0 | 0.00 | 0.04 | 0.04 | 60 | 1011.8 |
| 20260508205513 | 57 | 84 | 2.0 | 2.0 | 0.00 | 0.04 | 0.04 | 61 | 1012.0 |
| 20260508205009 | 57 | 148 | 2.0 | 2.0 | 0.00 | 0.04 | 0.04 | 61 | 1011.9 |
| 20260508204506 | 56 | 121 | 0.0 | 0.0 | 0.00 | 0.04 | 0.04 | 63 | 1012.1 |
| 20260508204002 | 56 | 120 | 0.0 | 0.0 | 0.00 | 0.04 | 0.04 | 62 | 1011.9 |
| 20260508203458 | 57 | 122 | 0.0 | 0.0 | 0.00 | 0.04 | 0.04 | 62 | 1011.9 |
| 20260508202953 | 57 | 95 | 0.0 | 1.0 | 0.00 | 0.04 | 0.04 | 60 | 1011.9 |
| 20260508202451 | 57 | 135 | 1.0 | 2.0 | 0.00 | 0.04 | 0.04 | 59 | 1011.8 |
| 20260508201948 | 57 | 31 | 1.0 | 2.0 | 0.00 | 0.04 | 0.04 | 60 | 1011.8 |
| 20260508201444 | 57 | 92 | 1.0 | 1.0 | 0.00 | 0.04 | 0.04 | 61 | 1011.8 |
| 20260508200941 | 57 | 108 | 1.0 | 2.0 | 0.00 | 0.04 | 0.04 | 60 | 1012.0 |
| 20260508200438 | 57 | 128 | 0.0 | 0.0 | 0.00 | 0.04 | 0.04 | 61 | 1011.9 |
| 20260508195933 | 57 | 75 | 3.0 | 3.0 | 0.00 | 0.04 | 0.04 | 62 | 1012.0 |
| 20260508195431 | 57 | 88 | 1.0 | 2.0 | 0.00 | 0.04 | 0.04 | 62 | 1012.0 |
| 20260508194926 | 56 | 62 | 0.0 | 1.0 | 0.00 | 0.04 | 0.04 | 65 | 1012.2 |
| 20260508194424 | 56 | 58 | 1.0 | 2.0 | 0.00 | 0.04 | 0.04 | 63 | 1012.2 |
| 20260508193920 | 55 | 112 | 1.0 | 1.0 | 0.00 | 0.04 | 0.04 | 66 | 1012.3 |
| 20260508193418 | 55 | 119 | 1.0 | 1.0 | 0.00 | 0.04 | 0.04 | 72 | 1012.6 |
| 20260508192914 | 53 | 123 | 0.0 | 0.0 | 0.00 | 0.04 | 0.04 | 74 | 1012.8 |
| 20260508192411 | 52 | 96 | 0.0 | 0.0 | 0.00 | 0.04 | 0.04 | 75 | 1012.8 |
| 20260508191908 | 52 | 120 | 1.0 | 2.0 | 0.00 | 0.04 | 0.04 | 74 | 1012.8 |
| 20260508191405 | 52 | 109 | 1.0 | 2.0 | 0.00 | 0.04 | 0.04 | 72 | 1012.9 |
| 20260508190902 | 53 | 106 | 1.0 | 2.0 | 0.00 | 0.04 | 0.04 | 67 | 1013.0 |
| 20260508190359 | 54 | 159 | 1.0 | 2.0 | 0.00 | 0.04 | 0.04 | 67 | 1012.9 |
| 20260508185855 | 54 | 127 | 1.0 | 1.0 | 0.00 | 0.04 | 0.04 | 63 | 1012.6 |
| 20260508185353 | 55 | 116 | 1.0 | 2.0 | 0.00 | 0.04 | 0.04 | 63 | 1012.6 |
| 20260508184850 | 55 | 177 | 0.0 | 1.0 | 0.00 | 0.04 | 0.04 | 61 | 1012.5 |
| 20260508184347 | 55 | 71 | 0.0 | 1.0 | 0.00 | 0.04 | 0.04 | 61 | 1012.6 |
| 20260508183844 | 55 | 120 | 0.0 | 0.0 | 0.00 | 0.04 | 0.04 | 60 | 1012.3 |
| 20260508183340 | 55 | 107 | 0.0 | 1.0 | 0.00 | 0.04 | 0.04 | 59 | 1012.2 |
| 20260508182836 | 55 | 67 | 3.0 | 3.0 | 0.00 | 0.04 | 0.04 | 59 | 1012.2 |
| 20260508182333 | 55 | 123 | 1.0 | 2.0 | 0.00 | 0.04 | 0.04 | 61 | 1012.1 |
| 20260508181828 | 55 | 138 | 2.0 | 2.0 | 0.00 | 0.04 | 0.04 | 60 | 1012.2 |
| 20260508181326 | 56 | 104 | 1.0 | 1.0 | 0.00 | 0.04 | 0.04 | 57 | 1012.0 |
| 20260508180823 | 56 | 123 | 1.0 | 1.0 | 0.00 | 0.04 | 0.04 | 57 | 1011.7 |
| 20260508180320 | 56 | 92 | 2.0 | 2.0 | 0.00 | 0.04 | 0.04 | 55 | 1011.7 |
| 20260508175816 | 56 | 171 | 1.0 | 2.0 | 0.00 | 0.04 | 0.04 | 57 | 1011.6 |
| 20260508175312 | 56 | 124 | 0.0 | 0.0 | 0.00 | 0.04 | 0.04 | 55 | 1011.8 |
| 20260508174811 | 57 | 174 | 3.0 | 5.0 | 0.00 | 0.04 | 0.04 | 53 | 1011.7 |
| 20260508174308 | 57 | 121 | 0.0 | 0.0 | 0.00 | 0.04 | 0.04 | 55 | 1011.7 |
| 20260508173804 | 57 | 123 | 0.0 | 1.0 | 0.00 | 0.04 | 0.04 | 55 | 1011.8 |
| 20260508173301 | 57 | 128 | 1.0 | 2.0 | 0.00 | 0.04 | 0.04 | 54 | 1011.9 |
| 20260508172757 | 58 | 138 | 1.0 | 2.0 | 0.00 | 0.04 | 0.04 | 52 | 1011.9 |
| 20260508172254 | 57 | 114 | 0.0 | 1.0 | 0.00 | 0.04 | 0.04 | 54 | 1012.0 |
| 20260508171750 | 57 | 120 | 1.0 | 1.0 | 0.00 | 0.04 | 0.04 | 54 | 1011.9 |
| 20260508171246 | 56 | 107 | 0.0 | 0.0 | 0.00 | 0.04 | 0.04 | 53 | 1012.0 |
| 20260508170743 | 57 | 40 | 3.0 | 7.0 | 0.00 | 0.04 | 0.04 | 54 | 1012.0 |
| 20260508170242 | 57 | 116 | 0.0 | 1.0 | 0.00 | 0.04 | 0.04 | 53 | 1011.8 |
| 20260508165738 | 57 | 116 | 0.0 | 0.0 | 0.00 | 0.04 | 0.04 | 51 | 1011.6 |
| 20260508165235 | 57 | 127 | 1.0 | 1.0 | 0.00 | 0.04 | 0.04 | 51 | 1011.6 |
| 20260508164731 | 58 | 119 | 0.0 | 0.0 | 0.00 | 0.04 | 0.04 | 51 | 1011.8 |
| 20260508164228 | 58 | 153 | 2.0 | 2.0 | 0.00 | 0.04 | 0.04 | 51 | 1011.6 |
| 20260508163726 | 58 | 128 | 0.0 | 1.0 | 0.00 | 0.04 | 0.04 | 50 | 1011.7 |
| 20260508163223 | 58 | 124 | 0.0 | 1.0 | 0.00 | 0.04 | 0.04 | 49 | 1011.7 |
| 20260508162719 | 59 | 122 | 0.0 | 0.0 | 0.00 | 0.04 | 0.04 | 51 | 1011.9 |
| 20260508162216 | 59 | 167 | 1.0 | 2.0 | 0.00 | 0.04 | 0.04 | 51 | 1011.8 |
| 20260508161713 | 60 | 111 | 0.0 | 0.0 | 0.00 | 0.04 | 0.04 | 47 | 1012.0 |
| 20260508161211 | 59 | 119 | 0.0 | 1.0 | 0.00 | 0.04 | 0.04 | 47 | 1012.0 |
| 20260508160708 | 58 | 109 | 3.0 | 6.0 | 0.00 | 0.04 | 0.04 | 48 | 1012.1 |
| 20260508160206 | 58 | 132 | 0.0 | 1.0 | 0.00 | 0.04 | 0.04 | 50 | 1012.1 |
| 20260508155703 | 58 | 179 | 2.0 | 2.0 | 0.00 | 0.04 | 0.04 | 50 | 1012.2 |
| 20260508155200 | 56 | 123 | 1.0 | 1.0 | 0.00 | 0.04 | 0.04 | 50 | 1012.1 |
| 20260508154657 | 56 | 180 | 3.0 | 3.0 | 0.00 | 0.04 | 0.04 | 51 | 1012.3 |
| 20260508154154 | 57 | 152 | 2.0 | 2.0 | 0.00 | 0.04 | 0.04 | 49 | 1012.4 |
| 20260508153650 | 58 | 193 | 3.0 | 3.0 | 0.00 | 0.04 | 0.04 | 48 | 1012.4 |
| 20260508153147 | 59 | 156 | 2.0 | 2.0 | 0.00 | 0.04 | 0.04 | 47 | 1012.4 |
| 20260508152644 | 59 | 181 | 3.0 | 5.0 | 0.00 | 0.04 | 0.04 | 48 | 1012.3 |
| 20260508152139 | 58 | 136 | 1.0 | 1.0 | 0.00 | 0.04 | 0.04 | 49 | 1012.4 |
| 20260508151636 | 58 | 54 | 3.0 | 3.0 | 0.00 | 0.04 | 0.04 | 48 | 1012.2 |
| 20260508151133 | 57 | 107 | 0.0 | 0.0 | 0.00 | 0.04 | 0.04 | 51 | 1012.3 |
| 20260508150630 | 57 | 124 | 0.0 | 1.0 | 0.00 | 0.04 | 0.04 | 49 | 1012.3 |
| 20260508150127 | 57 | 94 | 2.0 | 3.0 | 0.00 | 0.04 | 0.04 | 54 | 1012.3 |
| 20260508145622 | 56 | 33 | 4.0 | 5.0 | 0.00 | 0.04 | 0.04 | 54 | 1012.5 |
| 20260508145119 | 57 | 110 | 0.0 | 0.0 | 0.00 | 0.04 | 0.04 | 53 | 1012.6 |
| 20260508144617 | 56 | 306 | 1.0 | 1.0 | 0.00 | 0.04 | 0.04 | 53 | 1012.4 |
| 20260508144114 | 56 | 126 | 1.0 | 2.0 | 0.00 | 0.04 | 0.04 | 57 | 1012.7 |
| 20260508143612 | 55 | 108 | 1.0 | 1.0 | 0.00 | 0.04 | 0.04 | 60 | 1012.7 |
| 20260508143108 | 53 | 146 | 0.0 | 1.0 | 0.00 | 0.04 | 0.04 | 62 | 1012.9 |
| 20260508142605 | 54 | 128 | 0.0 | 0.0 | 0.00 | 0.04 | 0.04 | 61 | 1013.0 |
| 20260508142102 | 54 | 27 | 2.0 | 3.0 | 0.00 | 0.04 | 0.04 | 61 | 1012.9 |
| 20260508141558 | 54 | 43 | 3.0 | 5.0 | 0.00 | 0.04 | 0.04 | 63 | 1012.9 |
| 20260508141056 | 54 | 69 | 1.0 | 2.0 | 0.00 | 0.04 | 0.04 | 63 | 1012.9 |
| 20260508140553 | 53 | 113 | 1.0 | 1.0 | 0.00 | 0.04 | 0.04 | 64 | 1012.8 |
| 20260508140049 | 53 | 102 | 1.0 | 1.0 | 0.00 | 0.04 | 0.04 | 65 | 1012.7 |
| 20260508135545 | 52 | 125 | 0.0 | 0.0 | 0.00 | 0.04 | 0.04 | 66 | 1012.6 |
| 20260508135041 | 52 | 123 | 1.0 | 1.0 | 0.00 | 0.04 | 0.04 | 67 | 1012.5 |
| 20260508134538 | 52 | 110 | 0.0 | 0.0 | 0.00 | 0.04 | 0.04 | 68 | 1012.8 |
| 20260508134035 | 52 | 129 | 0.0 | 1.0 | 0.00 | 0.04 | 0.04 | 69 | 1012.9 |
| 20260508133532 | 51 | 117 | 0.0 | 0.0 | 0.00 | 0.04 | 0.04 | 71 | 1012.7 |
| 20260508133029 | 51 | 163 | 2.0 | 3.0 | 0.00 | 0.04 | 0.04 | 71 | 1013.1 |
| 20260508132527 | 50 | 123 | 1.0 | 1.0 | 0.00 | 0.04 | 0.04 | 72 | 1012.8 |
| 20260508132024 | 50 | 111 | 0.0 | 1.0 | 0.00 | 0.04 | 0.04 | 73 | 1012.9 |
| 20260508131519 | 50 | 95 | 4.0 | 5.0 | 0.00 | 0.04 | 0.04 | 74 | 1012.9 |
| 20260508131016 | 50 | 106 | 1.0 | 1.0 | 0.00 | 0.04 | 0.04 | 74 | 1013.0 |